This demonstration page uses our WeatherBlox Daily Observations layout. Learn more.

Left ArrowRight Arrow

41.86663, -103.66717

Hourly Observations for September 30, 2021

Temp ( °F °C ) Dew Point ( °F °C ) Humidity (%) Winds ( mph kmh ) Pressure ( in mb ) Visibility ( mi km ) Precip ( " mm )
12:53 am 00:53 Cloudy 47 8.3 38 3.3 71 71 WNW 12 19 30.19 1023 10 16 0.00 0.00
1:53 am 01:53 Cloudy 47 8.3 37 2.8 69 69 WNW 9 15 30.23 1024 10 16 0.00 0.00
2:53 am 02:53 Cloudy 47 8.3 36 2.2 66 66 WNW 10 17 30.24 1024 10 16 0.00 0.00
3:53 am 03:53 Cloudy 45 7.2 36 2.2 71 71 WNW 8 13 30.24 1024 10 16 0.00 0.00
4:53 am 04:53 Cloudy 44 6.7 35 1.7 71 71 WNW 12 19 30.25 1024 10 16 0.00 0.00
5:53 am 05:53 Cloudy 44 6.7 35 1.7 71 71 W 7 11 30.28 1026 10 16 0.00 0.00
6:53 am 06:53 Cloudy 44 6.7 35 1.7 71 71 WNW 7 11 30.27 1025 10 16 0.00 0.00
7:53 am 07:53 Cloudy 46 7.8 36 2.2 68 68 W 6 9 30.28 1026 10 16 0.00 0.00
8:53 am 08:53 Cloudy 48 8.9 36 2.2 63 63 WNW 8 13 30.29 1026 10 16 0.00 0.00
9:53 am 09:53 Cloudy 50 10 37 2.8 61 61 WNW 10 17 30.30 1026 10 16 0.00 0.00
10:53 am 10:53 Cloudy 54 12.2 38 3.3 55 55 WNW 7 11 30.28 1026 10 16 0.00 0.00
11:53 am 11:53 Cloudy 60 15.6 38 3.3 44 44 WNW 9 15 30.25 1025 10 16 0.00 0.00
12:53 pm 12:53 Cloudy 62 16.7 37 2.8 40 40 N 9 15 30.23 1024 10 16 0.00 0.00
1:53 pm 13:53 Partly Cloudy 65 18.3 38 3.3 37 37 VRB 7 11 30.19 1023 10 16 0.00 0.00
2:53 pm 14:53 Sunny 68 20 38 3.3 33 33 NNW 10 17 30.16 1021 10 16 0.00 0.00
3:53 pm 15:53 Sunny 68 20 37 2.8 32 32 NNE 13 20 30.15 1021 10 16 0.00 0.00
4:53 pm 16:53 Sunny 68 20 36 2.2 31 31 NNE 10 17 30.16 1021 10 16 0.00 0.00
5:53 pm 17:53 Sunny 65 18.3 38 3.3 37 37 N 9 15 30.17 1022 10 16 0.00 0.00
6:53 pm 18:53 Clear 56 13.3 39 3.9 53 53 NNE 7 11 30.21 1023 10 16 0.00 0.00
7:53 pm 19:53 Clear 53 11.7 39 3.9 59 59 NNE 9 15 30.22 1023 10 16 0.00 0.00
8:53 pm 20:53 Clear 50 10 38 3.3 63 63 NNE 7 11 30.24 1024 10 16 0.00 0.00
9:53 pm 21:53 Clear 50 10 38 3.3 63 63 Calm 30.23 1024 10 16 0.00 0.00
10:53 pm 22:53 Clear 44 6.7 36 2.2 73 73 Calm 30.23 1024 10 16 0.00 0.00
11:53 pm 23:53 Clear 43 6.1 36 2.2 76 76 N 6 9 30.20 1023 10 16 0.00 0.00

Powered by AerisWeather